Change the Weather History Date:

Thursday, January 31, 2013

  Actual Average (KLNS) Record (KLNS)
Temperature  
Mean Temperature 45 °F -  
Max Temperature 62 °F 39 °F 63 °F (2012)
Min Temperature 28 °F 22 °F 9 °F (1977)
Degree Days  
Heating Degree Days 20    
Moisture  
Dew Point 29 °F    
Average Humidity 65    
Maximum Humidity 100    
Minimum Humidity 44    
Precipitation  
Precipitation 1.10 in - - ()
Sea Level Pressure  
Sea Level Pressure 29.52 in    
Wind  
Wind Speed 16 mph (West)    
Max Wind Speed 30 mph    
Max Gust Speed 54 mph    
Visibility 9 miles    
Events Rain    
Averages and records for this station are not official NWS values.
T = Trace of Precipitation, MM = Missing Value Source: NWS Daily Summary

Daily Weather History Graph

Daily Weather History Graph

Search for Another Location

Airport or City:

Trip Planner

Search our weather history database for the weather conditions in past years. The results will help you decide how hot, cold, wet, or windy it might be!

Date:

Astronomy

Jan. 31, 2013 Rise Set
Actual Time 7:12 AM EST 5:21 PM EST
Civil Twilight 6:43 AM EST 5:50 PM EST
Nautical Twilight 6:11 AM EST 6:22 PM EST
Astronomical Twilight 5:39 AM EST 6:54 PM EST
Moon 10:21 PM EST (1/31) 9:11 AM EST (1/31)
Length of Visible Light 11h 06m
Length of Day
10h 09m
Waning Gibbous, 80% of the Moon is Illuminated
Jan 31
Waning Gibbous
Feb 3
Last Quarter
Feb 10
New
Feb 17
First Quarter
Feb 25
Full

Hourly Weather History & Observations

Time (EST) Temp. Windchill Dew Point Humidity Pressure Visibility Wind Dir Wind Speed Gust Speed Precip Events Conditions
12:15 AM 55.4 °F - 55.4 °F 100% 29.27 in 3.0 mi SSE 13.8 mph 19.6 mph 0.01 in Rain Light Rain
12:35 AM 57.2 °F - 57.2 °F 100% 29.22 in 7.0 mi SSE 12.7 mph 23.0 mph 0.02 in Rain Light Rain
12:55 AM 60.8 °F - 60.8 °F 100% 29.19 in 10.0 mi SSW 13.8 mph 27.6 mph 0.02 in   Overcast
1:15 AM 60.8 °F - 59.0 °F 94% 29.18 in 9.0 mi SW 8.1 mph 23.0 mph N/A   Light Drizzle
1:35 AM 59.0 °F - 57.2 °F 94% 29.14 in 8.0 mi South 9.2 mph - 0.01 in Rain Light Rain
1:55 AM 60.8 °F - 59.0 °F 94% 29.16 in 3.0 mi SSW 11.5 mph 25.3 mph 0.09 in Rain Heavy Rain
2:15 AM 62.6 °F - 60.8 °F 94% 29.12 in 3.0 mi South 13.8 mph 20.7 mph 0.04 in Rain Rain
2:35 AM 59.0 °F - 57.2 °F 94% 29.18 in 1.0 mi WSW 10.4 mph 32.2 mph 0.38 in Rain Heavy Rain
2:55 AM 57.2 °F - 57.2 °F 100% 29.20 in 3.0 mi WSW 8.1 mph 17.3 mph 0.47 in Rain Heavy Rain
3:15 AM 57.2 °F - 57.2 °F 100% 29.19 in 3.0 mi WSW 6.9 mph - 0.08 in Rain Heavy Rain
3:35 AM 57.2 °F - 55.4 °F 94% 29.18 in 10.0 mi SW 5.8 mph - 0.14 in Rain Light Rain
3:55 AM 57.2 °F - 55.4 °F 94% 29.14 in 5.0 mi SSW 4.6 mph - 0.16 in Rain Light Rain
4:15 AM 55.4 °F - 55.4 °F 100% 29.12 in 10.0 mi SW 3.5 mph - N/A   Mostly Cloudy
4:35 AM 55.4 °F - 55.4 °F 100% 29.14 in 10.0 mi SSW 5.8 mph - N/A   Mostly Cloudy
4:55 AM 51.8 °F - 51.8 °F 100% 29.18 in 1.2 mi West 16.1 mph 38.0 mph 0.33 in Rain Rain
5:15 AM 48.2 °F - 46.4 °F 93% 29.20 in 3.0 mi West 29.9 mph 42.6 mph 0.01 in Rain Light Rain
5:35 AM 46.4 °F 37.9 °F 46.4 °F 100% 29.23 in 4.0 mi West 25.3 mph 36.8 mph 0.03 in   Mostly Cloudy
5:55 AM 46.4 °F 39.5 °F 39.2 °F 76% 29.26 in 10.0 mi West 17.3 mph 33.4 mph 0.03 in   Overcast
6:15 AM 44.6 °F 36.4 °F 35.6 °F 71% 29.28 in 10.0 mi WNW 20.7 mph 27.6 mph N/A   Partly Cloudy
6:35 AM 44.6 °F 35.7 °F 35.6 °F 71% 29.30 in 10.0 mi WNW 24.2 mph 54.1 mph N/A   Scattered Clouds
6:55 AM 44.6 °F 35.1 °F 32.0 °F 61% 29.33 in 10.0 mi WNW 27.6 mph 39.1 mph N/A   Overcast
7:15 AM 42.8 °F 33.3 °F 30.2 °F 61% 29.36 in 10.0 mi West 24.2 mph 41.4 mph N/A   Mostly Cloudy
7:35 AM 39.2 °F 28.5 °F 30.2 °F 70% 29.39 in 10.0 mi WNW 24.2 mph 40.3 mph N/A   Partly Cloudy
7:55 AM 39.2 °F 28.7 °F 28.4 °F 65% 29.41 in 10.0 mi WNW 23.0 mph 41.4 mph N/A   Partly Cloudy
8:15 AM 39.2 °F 29.0 °F 30.2 °F 70% 29.43 in 10.0 mi West 21.9 mph 28.8 mph N/A   Mostly Cloudy
8:35 AM 39.2 °F 30.2 °F 28.4 °F 65% 29.45 in 10.0 mi West 17.3 mph 25.3 mph N/A   Partly Cloudy
8:55 AM 39.2 °F 29.6 °F 28.4 °F 65% 29.46 in 10.0 mi West 19.6 mph 28.8 mph N/A   Clear
9:15 AM 41.0 °F 31.4 °F 28.4 °F 61% 29.47 in 10.0 mi West 21.9 mph 32.2 mph N/A   Scattered Clouds
9:35 AM 39.2 °F 29.0 °F 26.6 °F 61% 29.48 in 10.0 mi WNW 21.9 mph 34.5 mph N/A   Scattered Clouds
9:55 AM 41.0 °F 30.2 °F 26.6 °F 57% 29.49 in 10.0 mi WNW 27.6 mph 36.8 mph N/A   Scattered Clouds
10:15 AM 41.0 °F 31.1 °F 24.8 °F 53% 29.51 in 10.0 mi West 23.0 mph 38.0 mph N/A   Scattered Clouds
10:35 AM 41.0 °F 32.5 °F 23.0 °F 49% 29.53 in 10.0 mi West 17.3 mph 28.8 mph N/A   Mostly Cloudy
10:55 AM 39.2 °F 29.0 °F 23.0 °F 52% 29.53 in 10.0 mi West 21.9 mph 33.4 mph N/A   Mostly Cloudy
11:15 AM 41.0 °F 29.8 °F 24.8 °F 53% 29.54 in 10.0 mi West 29.9 mph 36.8 mph N/A   Scattered Clouds
11:35 AM 42.8 °F 33.1 °F 24.8 °F 49% 29.56 in 10.0 mi West 25.3 mph 33.4 mph N/A   Scattered Clouds
11:55 AM 41.0 °F 30.2 °F 21.2 °F 45% 29.55 in 10.0 mi WNW 27.6 mph 35.7 mph N/A   Scattered Clouds
12:15 PM 42.8 °F 33.1 °F 23.0 °F 46% 29.55 in 10.0 mi West 25.3 mph 33.4 mph N/A   Scattered Clouds
12:35 PM 42.8 °F 34.5 °F 23.0 °F 46% 29.56 in 10.0 mi West 18.4 mph 31.1 mph N/A   Scattered Clouds
12:55 PM 39.2 °F 28.5 °F 23.0 °F 52% 29.57 in 10.0 mi West 24.2 mph 36.8 mph N/A   Scattered Clouds
1:15 PM 39.2 °F 30.2 °F 23.0 °F 52% 29.59 in 10.0 mi West 17.3 mph 33.4 mph N/A   Mostly Cloudy
1:35 PM 37.4 °F 25.4 °F 23.0 °F 56% 29.59 in 10.0 mi West 27.6 mph 34.5 mph N/A   Scattered Clouds
1:55 PM 39.2 °F 28.0 °F 21.2 °F 49% 29.60 in 10.0 mi WNW 26.5 mph 36.8 mph N/A   Scattered Clouds
2:15 PM 39.2 °F 28.0 °F 21.2 °F 49% 29.61 in 10.0 mi WNW 26.5 mph 36.8 mph N/A   Partly Cloudy
2:35 PM 37.4 °F 26.4 °F 19.4 °F 48% 29.62 in 10.0 mi West 23.0 mph 32.2 mph N/A   Clear
2:55 PM 37.4 °F 26.9 °F 19.4 °F 48% 29.64 in 10.0 mi West 20.7 mph 38.0 mph N/A   Partly Cloudy
3:15 PM 35.6 °F 24.5 °F 19.4 °F 52% 29.65 in 10.0 mi WNW 20.7 mph 33.4 mph N/A   Partly Cloudy
3:35 PM 37.4 °F 26.4 °F 17.6 °F 45% 29.66 in 10.0 mi West 23.0 mph 29.9 mph N/A   Clear
3:55 PM 35.6 °F 23.7 °F 15.8 °F 44% 29.68 in 10.0 mi West 24.2 mph 39.1 mph N/A   Clear
4:15 PM 33.8 °F 22.8 °F 15.8 °F 48% 29.69 in 10.0 mi West 18.4 mph 29.9 mph N/A   Clear
4:35 PM 33.8 °F 23.9 °F 17.6 °F 52% 29.69 in 10.0 mi WNW 15.0 mph - N/A   Scattered Clouds
4:55 PM 33.8 °F 22.5 °F 17.6 °F 52% 29.70 in 10.0 mi West 19.6 mph 28.8 mph N/A   Scattered Clouds
5:15 PM 33.8 °F 27.0 °F 19.4 °F 56% 29.72 in 10.0 mi WSW 8.1 mph 17.3 mph N/A   Mostly Cloudy
5:35 PM 32.0 °F 23.6 °F 19.4 °F 60% 29.73 in 10.0 mi West 10.4 mph 23.0 mph N/A   Partly Cloudy
5:55 PM 32.0 °F 24.2 °F 21.2 °F 64% 29.74 in 10.0 mi WSW 9.2 mph 19.6 mph N/A   Clear
6:15 PM 32.0 °F 22.5 °F 19.4 °F 60% 29.76 in 10.0 mi West 12.7 mph 21.9 mph N/A   Partly Cloudy
6:35 PM 32.0 °F 21.6 °F 21.2 °F 64% 29.77 in 10.0 mi West 15.0 mph 26.5 mph N/A   Mostly Cloudy
6:55 PM 32.0 °F 22.1 °F 21.2 °F 64% 29.78 in 10.0 mi West 13.8 mph 25.3 mph N/A   Mostly Cloudy
7:15 PM 32.0 °F 19.5 °F 21.2 °F 64% 29.79 in 10.0 mi West 21.9 mph 32.2 mph N/A   Mostly Cloudy
7:35 PM 32.0 °F 19.5 °F 17.6 °F 55% 29.79 in 10.0 mi West 21.9 mph 29.9 mph N/A   Mostly Cloudy
7:55 PM 32.0 °F 18.4 °F 19.4 °F 60% 29.81 in 10.0 mi WNW 26.5 mph 31.1 mph N/A   Mostly Cloudy
8:15 PM 32.0 °F 18.6 °F 17.6 °F 55% 29.83 in 10.0 mi WNW 25.3 mph 35.7 mph N/A   Mostly Cloudy
8:35 PM 30.2 °F 17.4 °F 14.0 °F 51% 29.84 in 10.0 mi WNW 20.7 mph 31.1 mph N/A   Mostly Cloudy
8:55 PM 30.2 °F 17.8 °F 12.2 °F 47% 29.84 in 10.0 mi WNW 19.6 mph 29.9 mph N/A   Clear
9:15 PM 30.2 °F 19.3 °F 12.2 °F 47% 29.84 in 10.0 mi West 15.0 mph 20.7 mph N/A   Clear
9:35 PM 30.2 °F 19.3 °F 10.4 °F 44% 29.84 in 10.0 mi West 15.0 mph 23.0 mph N/A   Clear
9:55 PM 30.2 °F 21.9 °F 10.4 °F 44% 29.85 in 10.0 mi West 9.2 mph 16.1 mph N/A   Clear
10:15 PM 28.4 °F 22.2 °F 12.2 °F 51% 29.84 in 10.0 mi WSW 5.8 mph - N/A   Clear
10:35 PM 28.4 °F 20.4 °F 10.4 °F 47% 29.84 in 10.0 mi WSW 8.1 mph - N/A   Clear
10:55 PM 28.4 °F 22.2 °F 10.4 °F 47% 29.85 in 10.0 mi WSW 5.8 mph - N/A   Clear
11:15 PM 28.4 °F 22.2 °F 10.4 °F 47% 29.85 in 10.0 mi WSW 5.8 mph - N/A   Clear
11:35 PM 28.4 °F 22.2 °F 10.4 °F 47% 29.85 in 10.0 mi SW 5.8 mph - N/A   Scattered Clouds
11:55 PM 28.4 °F 21.2 °F 10.4 °F 47% 29.85 in 10.0 mi WSW 6.9 mph - N/A   Partly Cloudy